Weather in Rettikhovka

Russia / Primorsky Krai     44°10′07″N   132°46′16″E
temp.,
°C
wind,
m/s
gust,
m/s
humid.,
%
clouds,
%
prec.,
mm/h
press.,
hPa
HPBL,
m
16 may, sun
sun1601:00+11s1194100 2.5 101047
04:00+10sse119494 2.5 101040
07:00+10sse119131 0.0 100945
10:00+16wsw1255100 0.0 1008642
13:00+19nw343954 0.0 10071474
16:00+19n3435100 0.0 10051443
19:00+17ese0055100 0.0 100411
22:00+12e11585 0.0 100510
17 may, mon
mon1701:00+10s116117 0.0 100510
04:00+9s11655 0.0 100510
07:00+10s116840 0.0 100623
10:00+18sw224751 0.0 1006394
13:00+22wsw3334100 0.0 10051157
16:00+22sw3434100 0.0 10041031
19:00+19sse1157100 0.0 100419
22:00+14ssw22650 0.0 100619
18 may, tue
tue1801:00+11s22590 0.0 100727
04:00+10sse22540 0.0 100723
07:00+11sse22590 0.0 100741
10:00+20s24410 0.0 1007394
13:00+25sw46330 0.0 10051203
16:00+26sw57313 0.0 10041576
19:00+21s4114785 0.0 1004478
22:00+14s3549100 0.0 1006106
19 may, wed
wed1901:00+12s34603 0.0 100693
04:00+11s34831 0.3 100676
07:00+12s24855 0.0 1007101
10:00+19wsw245848 0.0 1008548
13:00+23w344821 0.0 10081027
16:00+24nw22465 0.0 10081060
19:00+23ssw11630 0.0 100720
22:00+16w11752 0.1 101111
20 may, thu
thu2001:00+13sse22851 0.3 101117
04:00+12se22860 0.4 101117
07:00+13se228060 0.0 101251
10:00+22s24435 0.0 1011393
13:00+26ssw693490 0.0 10101141
16:00+25ssw61236100 0.0 10091183
19:00+20ssw41348100 0.0 1009691
22:00+15s2357100 0.0 101051